Location: Unspecified
(0.0000°N, 0.0000°E)
Time: 07:42:36
(UTC+00:00)

deb NOAA 5 - Pass Details

Date: 21 February 2026
Orbit: 1470 x 1835 km, 102.5° (Epoch: 10 March)

Event Time Altitude Azimuth Distance (km) Brightness Sun altitude
Rises 20:10:52 0° 150° (SSE) 4,765 ? -28.8°
Enters shadow 20:13:34 - 145° (SE) 3,859 ? -29.5°
Exits shadow 20:30:30 - 2° (N) 3,775 ? -33.6°
Sets 20:32:50 0° 357° (N) 4,568 ? -34.2°
